When you browse on this site, cookies collect data to enhance your experience and personalize the content and advertising you see.
Visit our Privacy Policy to learn more. By continuing to use the site, you agree to this use of cookies and data.
  • en France
  • Liste des pays
  • À 7 jours
  • Température de l'eau
  • Carte satellitaire
  • Carte météo
  • Widgets météo
  • user-avatar
    Se connecter

    Météo par heure à Sydney

    Ce jour, 25 Mai, Samedi

    Heure Température Précipitation Vent Pression Humidité
    00:00 +17°C° 0 mm 2 m/s 765 mmHg 44%
    01:00 +17°C° 0 mm 2 m/s 764 mmHg 43%
    02:00 +16°C° 0 mm 2 m/s 764 mmHg 45%
    03:00 +16°C° 0 mm 2 m/s 764 mmHg 46%
    04:00 +14°C° 0 mm 3 m/s 764 mmHg 47%
    05:00 +15°C° 0 mm 2 m/s 764 mmHg 48%
    06:00 +15°C° 0 mm 2 m/s 764 mmHg 50%
    07:00 +15°C° 0 mm 2 m/s 764 mmHg 51%
    08:00 +17°C° 0 mm 2 m/s 764 mmHg 47%
    09:00 +19°C° 0 mm 2 m/s 764 mmHg 43%
    10:00 +21°C° 0 mm 2 m/s 763 mmHg 38%
    11:00 +24°C° 0 mm 2 m/s 763 mmHg 36%
    12:00 +25°C° 0 mm 1 m/s 762 mmHg 34%
    13:00 +27°C° 0 mm 1 m/s 762 mmHg 31%
    14:00 +27°C° 0 mm 2 m/s 761 mmHg 33%
    15:00 +26°C° 0 mm 3 m/s 761 mmHg 35%
    16:00 +25°C° 0 mm 3 m/s 761 mmHg 37%
    17:00 +23°C° 0 mm 4 m/s 761 mmHg 40%
    18:00 +21°C° 0 mm 4 m/s 761 mmHg 43%
    19:00 +20°C° 0 mm 4 m/s 761 mmHg 46%
    20:00 +19°C° 0 mm 4 m/s 761 mmHg 44%
    21:00 +19°C° 0 mm 4 m/s 761 mmHg 42%
    22:00 +18°C° 0 mm 4 m/s 761 mmHg 39%
    23:00 +18°C° 0 mm 4 m/s 761 mmHg 42%

    Demain, 26 Mai, Dimanche

    Heure Température Précipitation Vent Pression Humidité
    00:00 +17°C° 0 mm 4 m/s 760 mmHg 44%
    01:00 +17°C° 0 mm 4 m/s 760 mmHg 47%
    02:00 +17°C° 0 mm 4 m/s 760 mmHg 47%
    03:00 +17°C° 0 mm 4 m/s 760 mmHg 48%
    04:00 +16°C° 0 mm 5 m/s 759 mmHg 48%
    05:00 +15°C° 0 mm 5 m/s 759 mmHg 50%
    06:00 +15°C° 0 mm 4 m/s 760 mmHg 52%
    07:00 +15°C° 0 mm 4 m/s 760 mmHg 54%
    08:00 +17°C° 0.4 mm 4 m/s 760 mmHg 56%
    09:00 +18°C° 0.4 mm 4 m/s 760 mmHg 58%
    10:00 +19°C° 0.4 mm 3 m/s 760 mmHg 60%
    11:00 +20°C° 0 mm 3 m/s 760 mmHg 52%
    12:00 +22°C° 0 mm 3 m/s 759 mmHg 44%
    13:00 +24°C° 0 mm 3 m/s 759 mmHg 36%
    14:00 +23°C° 0 mm 4 m/s 758 mmHg 36%
    15:00 +22°C° 0 mm 4 m/s 758 mmHg 37%
    16:00 +22°C° 0 mm 5 m/s 758 mmHg 37%
    17:00 +20°C° 0 mm 4 m/s 759 mmHg 41%
    18:00 +19°C° 0 mm 4 m/s 759 mmHg 44%
    19:00 +18°C° 0 mm 3 m/s 759 mmHg 47%
    20:00 +17°C° 0 mm 4 m/s 759 mmHg 49%
    21:00 +15°C° 0 mm 4 m/s 759 mmHg 51%
    22:00 +14°C° 0 mm 4 m/s 759 mmHg 53%
    23:00 +14°C° 0 mm 4 m/s 759 mmHg 55%

    Après-demain, 27 Mai, Lundi

    Heure Température Précipitation Vent Pression Humidité
    00:00 +13°C° 0 mm 4 m/s 759 mmHg 56%
    01:00 +13°C° 0 mm 4 m/s 759 mmHg 57%
    02:00 +12°C° 0 mm 4 m/s 758 mmHg 57%
    03:00 +12°C° 0 mm 4 m/s 758 mmHg 56%
    04:00 +12°C° 0 mm 4 m/s 757 mmHg 55%
    05:00 +12°C° 0 mm 4 m/s 757 mmHg 54%
    06:00 +12°C° 0 mm 5 m/s 757 mmHg 53%
    07:00 +12°C° 0 mm 5 m/s 757 mmHg 52%
    08:00 +14°C° 0 mm 6 m/s 757 mmHg 48%
    09:00 +16°C° 0 mm 7 m/s 756 mmHg 44%
    10:00 +18°C° 0 mm 7 m/s 756 mmHg 40%
    11:00 +17°C° 0 mm 8 m/s 756 mmHg 39%
    12:00 +16°C° 0 mm 10 m/s 756 mmHg 38%
    13:00 +16°C° 0 mm 11 m/s 755 mmHg 37%
    14:00 +14°C° 0 mm 11 m/s 756 mmHg 36%
    15:00 +14°C° 0 mm 11 m/s 756 mmHg 34%
    16:00 +14°C° 0 mm 11 m/s 757 mmHg 33%
    17:00 +13°C° 0 mm 10 m/s 757 mmHg 36%
    18:00 +12°C° 0 mm 9 m/s 758 mmHg 39%
    19:00 +11°C° 0 mm 9 m/s 759 mmHg 42%
    20:00 +10°C° 0 mm 8 m/s 759 mmHg 43%
    21:00 +10°C° 0 mm 8 m/s 760 mmHg 45%
    22:00 +10°C° 0 mm 7 m/s 760 mmHg 46%
    23:00 +9°C° 0 mm 7 m/s 760 mmHg 47%

    28 Mai, Mardi

    Heure Température Précipitation Vent Pression Humidité
    00:00 +9°C° 0 mm 7 m/s 760 mmHg 48%
    01:00 +9°C° 0 mm 7 m/s 760 mmHg 49%
    02:00 +9°C° 0 mm 6 m/s 760 mmHg 50%
    03:00 +8°C° 0 mm 6 m/s 760 mmHg 51%
    04:00 +8°C° 0 mm 6 m/s 760 mmHg 52%
    05:00 +8°C° 0 mm 6 m/s 760 mmHg 54%
    06:00 +7°C° 0 mm 5 m/s 761 mmHg 56%
    07:00 +7°C° 0 mm 5 m/s 761 mmHg 58%
    08:00 +9°C° 0 mm 5 m/s 761 mmHg 54%
    09:00 +10°C° 0 mm 5 m/s 761 mmHg 51%
    10:00 +13°C° 0 mm 5 m/s 761 mmHg 47%
    11:00 +14°C° 0 mm 5 m/s 760 mmHg 43%
    12:00 +15°C° 0 mm 5 m/s 759 mmHg 39%
    13:00 +18°C° 0 mm 4 m/s 759 mmHg 36%
    14:00 +17°C° 0 mm 5 m/s 758 mmHg 37%
    15:00 +17°C° 0 mm 5 m/s 758 mmHg 39%
    16:00 +17°C° 0 mm 5 m/s 758 mmHg 40%
    17:00 +16°C° 0 mm 5 m/s 758 mmHg 43%
    18:00 +15°C° 0 mm 5 m/s 758 mmHg 46%
    19:00 +14°C° 0 mm 5 m/s 758 mmHg 48%
    20:00 +13°C° 0 mm 6 m/s 758 mmHg 50%
    21:00 +13°C° 0 mm 6 m/s 758 mmHg 52%
    22:00 +11°C° 0 mm 6 m/s 758 mmHg 54%
    23:00 +11°C° 0 mm 6 m/s 758 mmHg 54%

    29 Mai, Mercredi

    Heure Température Précipitation Vent Pression Humidité
    00:00 +11°C° 0 mm 6 m/s 757 mmHg 54%
    01:00 +11°C° 0 mm 6 m/s 756 mmHg 55%
    02:00 +11°C° 0 mm 7 m/s 756 mmHg 55%
    03:00 +11°C° 0 mm 7 m/s 755 mmHg 55%
    04:00 +11°C° 0 mm 7 m/s 755 mmHg 56%
    05:00 +11°C° 0 mm 7 m/s 755 mmHg 56%
    06:00 +11°C° 0 mm 6 m/s 755 mmHg 56%
    07:00 +11°C° 0 mm 6 m/s 755 mmHg 57%
    08:00 +14°C° 0 mm 6 m/s 755 mmHg 52%
    09:00 +16°C° 0 mm 7 m/s 755 mmHg 47%
    10:00 +17°C° 0 mm 7 m/s 755 mmHg 42%
    11:00 +17°C° 0 mm 7 m/s 755 mmHg 40%
    12:00 +18°C° 0 mm 8 m/s 754 mmHg 39%
    13:00 +18°C° 0 mm 8 m/s 754 mmHg 37%
    14:00 +18°C° 0 mm 8 m/s 754 mmHg 38%
    15:00 +17°C° 0 mm 8 m/s 754 mmHg 39%
    16:00 +16°C° 0 mm 7 m/s 754 mmHg 40%
    17:00 +16°C° 0 mm 7 m/s 755 mmHg 43%
    18:00 +15°C° 0 mm 6 m/s 756 mmHg 46%
    19:00 +14°C° 0 mm 6 m/s 756 mmHg 49%
    20:00 +13°C° 0 mm 6 m/s 757 mmHg 51%
    21:00 +13°C° 0 mm 6 m/s 757 mmHg 52%
    22:00 +11°C° 0 mm 6 m/s 757 mmHg 54%
    23:00 +10°C° 0 mm 6 m/s 758 mmHg 55%

    30 Mai, Jeudi

    Heure Température Précipitation Vent Pression Humidité
    00:00 +10°C° 0 mm 6 m/s 758 mmHg 55%
    01:00 +9°C° 0 mm 7 m/s 758 mmHg 56%
    02:00 +8°C° 0 mm 6 m/s 758 mmHg 56%
    03:00 +8°C° 0 mm 6 m/s 758 mmHg 57%
    04:00 +7°C° 0 mm 5 m/s 759 mmHg 57%
    05:00 +7°C° 0 mm 5 m/s 759 mmHg 57%
    06:00 +7°C° 0 mm 5 m/s 760 mmHg 57%
    07:00 +7°C° 0 mm 5 m/s 761 mmHg 58%
    08:00 +8°C° 0 mm 5 m/s 761 mmHg 54%
    09:00 +9°C° 0 mm 6 m/s 761 mmHg 50%
    10:00 +10°C° 0 mm 6 m/s 762 mmHg 46%
    11:00 +11°C° 0 mm 6 m/s 762 mmHg 41%
    12:00 +13°C° 0 mm 5 m/s 762 mmHg 37%
    13:00 +14°C° 0 mm 5 m/s 762 mmHg 32%
    14:00 +14°C° 0 mm 5 m/s 762 mmHg 33%
    15:00 +14°C° 0 mm 5 m/s 762 mmHg 33%
    16:00 +14°C° 0 mm 5 m/s 763 mmHg 34%
    17:00 +14°C° 0.1 mm 6 m/s 764 mmHg 36%
    18:00 +13°C° 0.1 mm 6 m/s 765 mmHg 38%
    19:00 +11°C° 0.1 mm 7 m/s 765 mmHg 41%
    20:00 +11°C° 0.2 mm 7 m/s 766 mmHg 43%
    21:00 +11°C° 0.2 mm 8 m/s 766 mmHg 46%
    22:00 +10°C° 0.2 mm 9 m/s 767 mmHg 48%
    23:00 +10°C° 0.1 mm 8 m/s 767 mmHg 50%
    Voir plus